Weather History for Nenana, AK

Change the Weather History Date:

Monday, August 11, 2014

  Actual Average Record
Temperature  
Mean Temperature 68 °F -  
Max Temperature 77 °F 69 °F 87 °F (1990)
Min Temperature 59 °F 42 °F 42 °F (2007)
Cooling Degree Days 3    
Growing Degree Days 18 (Base 50)    
Moisture  
Dew Point 52 °F    
Average Humidity 60    
Maximum Humidity 91    
Minimum Humidity 34    
Precipitation  
Precipitation 0.00 in - - ()
Sea Level Pressure  
Sea Level Pressure 29.71 in    
Wind  
Wind Speed 8 mph (East)    
Max Wind Speed 13 mph    
Max Gust Speed -    
Visibility 10 miles    
Events      
Averages and records for this station are not official NWS values.
T = Trace of Precipitation, MM = Missing Value Source: NWS Daily Summary

Daily Weather History Graph

Daily Weather History Graph

Search for Another Location

Airport:

Trip Planner

Search our weather history database for the weather conditions in past years. The results will help you decide how hot, cold, wet, or windy it might be!

Date:

Astronomy

Aug. 11, 2014 Rise Set
Actual Time 5:32 AM AKDT 10:27 PM AKDT
Civil Twilight 4:20 AM AKDT 11:38 PM AKDT
Nautical Twilight 2:33 AM AKDT 1:28 AM AKDT
Astronomical Twilight Sun does not rise Sun does not rise
Moon 9:57 PM AKDT (8/11) 7:40 AM AKDT (8/11)
Length of Visible Light 19h 18m
Length of Day
16h 55m
Full, 98% of the Moon is Illuminated
Aug 11
Full
Aug 17
Last Quarter
Aug 25
New
Sep 2
First Quarter
Sep 8
Full

Hourly Weather History & Observations

Time (AKDT) Temp. Dew Point Humidity Pressure Visibility Wind Dir Wind Speed Gust Speed Precip Events Conditions
12:53 AM 64.0 °F 48.9 °F 58% 29.68 in 10.0 mi East 12.7 mph - N/A   Clear
1:53 AM 63.0 °F 48.9 °F 60% 29.67 in 10.0 mi East 10.4 mph - N/A   Clear
2:53 AM 61.0 °F 48.9 °F 64% 29.68 in 10.0 mi East 9.2 mph - N/A   Clear
3:53 AM 61.0 °F 48.9 °F 64% 29.68 in 10.0 mi East 9.2 mph - N/A   Scattered Clouds
4:53 AM 60.1 °F 48.9 °F 67% 29.68 in 10.0 mi East 8.1 mph - N/A   Overcast
5:53 AM 59.0 °F 48.0 °F 67% 29.68 in 10.0 mi East 6.9 mph - N/A   Partly Cloudy
6:53 AM 59.0 °F 48.9 °F 69% 29.69 in 10.0 mi East 5.8 mph - N/A   Clear
7:53 AM 61.0 °F 48.9 °F 64% 29.70 in 10.0 mi ENE 9.2 mph - N/A   Overcast
8:53 AM 61.0 °F 48.9 °F 64% 29.70 in 10.0 mi East 6.9 mph - N/A   Scattered Clouds
9:53 AM 62.1 °F 50.0 °F 65% 29.70 in 10.0 mi ENE 8.1 mph - N/A   Overcast
10:53 AM 64.9 °F 50.0 °F 58% 29.70 in 10.0 mi East 10.4 mph - N/A   Partly Cloudy
11:53 AM 66.0 °F 52.0 °F 60% 29.69 in 10.0 mi ENE 5.8 mph - N/A   Partly Cloudy
12:53 PM 70.0 °F 52.0 °F 53% 29.69 in 10.0 mi ENE 10.4 mph - N/A   Clear
1:53 PM 71.1 °F 51.1 °F 49% 29.68 in 10.0 mi ESE 5.8 mph - N/A   Clear
2:53 PM 75.0 °F 51.1 °F 43% 29.68 in 10.0 mi SE 5.8 mph - N/A   Clear
3:53 PM 77.0 °F 52.0 °F 42% 29.67 in 10.0 mi Variable 3.5 mph - N/A   Mostly Cloudy
4:53 PM 77.0 °F 46.9 °F 34% 29.65 in 10.0 mi South 9.2 mph - N/A   Clear
5:53 PM 73.0 °F 48.0 °F 41% 29.65 in 10.0 mi South 5.8 mph - N/A   Mostly Cloudy
6:53 PM 72.0 °F 53.1 °F 51% 29.64 in 10.0 mi ENE 5.8 mph - N/A   Scattered Clouds
7:53 PM 73.0 °F 53.1 °F 49% 29.63 in 10.0 mi NE 4.6 mph - N/A   Clear
8:53 PM 69.1 °F 52.0 °F 54% 29.62 in 10.0 mi ENE 4.6 mph - N/A   Clear
9:53 PM 66.9 °F 53.1 °F 61% 29.62 in 10.0 mi NE 5.8 mph - N/A   Partly Cloudy
10:53 PM 62.1 °F 55.0 °F 78% 29.61 in 10.0 mi Calm Calm - N/A   Mostly Cloudy
11:53 PM 62.1 °F 55.9 °F 80% 29.61 in 10.0 mi Calm Calm - N/A   Scattered Clouds